sat.trackr.live / text

‹ back to catalog

STARLINK-35704

NORAD 66221 · 2025-244R

PAYLOAD ACTIVE UNKNOWN

§ Identity

Operator
Country
US
Launch date
2025-10-28
Launch site
AFWTR
Launch vehicle
Mass (kg)
RCS (m²)

Purposes: comms

External: N2YO · Heavens-Above · Gunter

§ Orbital elements

Epoch: 2026-05-24T16:24:45.970560Z

Period
94.11 min
Inclination
53.1568°
Eccentricity
0.0001239
Mean motion
15.30203350 rev/d
Perigee alt
474.4 km
Apogee alt
476.1 km
Semi-major
6,853.3 km
B*
6.2887e-4
RAAN
236.9914°
Arg perigee
73.1334°
Mean anomaly
286.9803°
Rev number
3,329

§ Raw data

STARLINK-357041 66221U 25244R   26144.68386540  .00018314  00000+0  62887-3 0  99912 66221  53.1568 236.9914 0001239  73.1334 286.9803 15.30203350 33292

JSON: /api/v1/satellites/66221 · /tle

For live sub-satellite position, see the globe view (requires WebGL).

§ Visibility from observer

Set your observer location to see the next 7 days of passes ≥ 10°. The values pass through the URL so the page stays shareable.

No JS? Fill the form by hand. The geolocation button needs JavaScript.